Wind_Speed
18 20 20 20 20 20 21 22 23 23 22 23 22 22 22 21 21 21 19 19 19 19 20 21 24 27 26 25 24 23 22 21 20 18 17 17 16 15 13 12 10 8 7
19 20 20 20 20 20 21 22 22 23 23 23 22 21 21 22 22 23 22 21 21 21 21 22 24 27 28 28 27 26 25 24 23 21 20 19 18 17 16 14 12 10 9
18 19 20 20 20 21 21 21 22 21 23 23 23 23 23 23 23 23 23 23 23 23 22 23 25 27 29 30 30 29 28 27 26 25 23 22 21 20 19 17 15 13 11
19 19 19 20 21 21 21 21 22 22 22 22 23 23 23 23 23 24 25 25 25 25 24 23 25 27 29 31 32 32 31 31 29 28 27 25 24 23 22 20 18 16 14
19 19 19 19 20 20 21 21 21 22 22 22 22 23 23 24 24 25 26 26 27 27 27 26 26 27 29 31 33 34 34 34 33 31 30 29 27 26 24 23 21 19 17
18 19 18 18 18 18 19 20 21 21 22 22 23 23 24 25 26 26 26 27 28 28 28 29 28 28 29 29 31 34 36 36 36 35 34 32 30 29 27 26 24 22 20
18 18 18 18 18 18 17 18 18 20 20 21 22 23 24 25 26 26 27 27 28 29 30 30 30 30 30 31 31 32 36 38 39 38 37 36 34 32 30 29 27 25 23
18 18 18 18 18 18 18 18 18 18 19 20 21 21 23 24 24 25 27 28 28 29 30 31 32 32 32 33 33 33 35 37 40 40 40 39 38 36 34 32 30 28 26
19 19 19 19 19 19 19 19 19 20 20 20 21 22 23 24 24 25 26 27 28 29 30 31 32 33 34 34 34 34 36 36 39 42 42 42 41 40 38 36 34 32 30
19 20 20 20 20 20 21 21 21 21 21 21 22 22 24 25 26 27 27 28 29 29 30 31 32 33 34 35 34 34 36 37 38 40 43 43 43 43 42 40 38 35 33
20 21 21 21 22 22 22 22 23 23 23 23 24 24 25 26 27 28 29 29 30 31 31 32 33 33 35 35 35 36 36 38 39 39 41 43 43 44 44 43 41 39 36
21 21 22 22 23 24 24 24 25 26 26 26 27 27 27 28 29 30 31 32 32 33 34 34 34 35 36 36 37 38 38 38 39 40 41 43 44 44 45 45 44 42 39
23 23 23 24 24 25 26 27 27 28 29 29 30 30 30 31 31 32 32 33 34 35 36 37 37 38 38 38 38 39 40 39 40 41 42 42 44 44 45 46 46 45 42
25 25 25 26 26 27 28 29 30 30 31 32 33 33 34 34 34 35 35 36 36 37 38 39 39 40 40 40 40 40 41 41 41 42 42 43 44 45 45 46 47 47 46
26 26 27 28 29 30 31 32 33 33 34 35 35 36 36 37 37 37 38 38 39 39 39 41 41 42 42 42 42 42 42 42 43 43 44 44 45 46 46 46 47 47 47
27 28 29 31 32 33 34 35 36 37 37 38 38 38 38 39 39 39 40 40 41 41 41 42 43 43 43 43 43 43 43 44 44 43 43 44 44 45 47 47 47 47 47
29 30 32 33 35 36 37 38 38 39 39 39 39 39 39 39 40 40 40 41 41 42 42 42 44 44 44 44 44 44 45 44 45 44 44 44 43 43 46 47 47 47 47
30 32 34 36 37 38 39 39 40 40 40 39 39 38 39 39 39 39 40 40 40 41 42 42 43 44 45 45 45 45 46 45 45 45 45 45 44 44 45 48 48 48 47
32 34 36 38 39 40 40 40 40 40 39 38 38 37 37 37 37 38 38 38 38 39 40 41 42 43 44 44 45 45 45 46 46 45 45 45 45 45 44 47 48 49 48
34 36 38 40 41 41 41 41 40 39 38 37 37 36 36 35 35 36 37 37 38 38 39 40 41 42 42 43 44 45 45 46 45 45 45 45 45 45 45 46 47 48 48
36 38 40 41 42 42 41 41 39 37 36 35 34 34 34 33 33 34 35 36 36 37 38 39 39 40 41 42 42 43 44 45 45 45 44 44 44 45 45 46 47 48 49
38 40 42 43 43 43 42 40 39 36 35 34 33 33 33 33 33 33 33 34 35 35 36 37 38 39 40 41 41 42 43 43 44 45 45 45 44 44 45 45 47 48 49
41 42 44 44 44 44 43 40 38 36 35 34 33 32 32 32 32 31 31 32 33 34 35 36 37 37 39 40 41 41 42 43 43 45 46 45 44 43 45 45 46 47 47
43 44 45 45 45 45 43 39 37 35 35 34 33 32 31 31 31 30 30 30 31 32 33 34 35 37 38 39 40 41 42 43 43 44 45 45 44 43 43 44 45 46 47
45 46 46 46 46 45 43 39 37 35 34 33 32 31 31 31 30 30 30 30 31 32 33 34 34 35 37 38 40 40 42 43 43 44 44 44 45 43 42 43 43 46 48
46 47 47 47 46 45 42 40 38 36 34 33 32 31 31 31 31 30 30 31 31 32 32 32 33 34 36 38 39 40 41 43 43 44 45 44 44 44 42 42 43 45 46
Wind_Direction
294 294 293 291 288 281 279 276 272 270 268 265 263 262 263 264 262 258 255 254 254 254 249 243 235 231 231 231 229 227 226 225 224 223 220 217 213 211 211 211 210 207 202
296 295 295 293 292 288 283 280 278 277 275 272 268 264 262 262 262 258 256 254 253 254 252 247 240 234 232 231 230 228 227 226 226 225 224 223 220 218 217 217 217 217 214
298 296 295 294 293 291 287 283 280 280 278 275 270 268 267 263 261 259 258 256 254 255 253 249 242 236 233 232 230 230 229 228 227 227 227 226 225 224 223 223 223 223 222
299 297 296 294 290 289 287 284 282 280 279 276 270 269 268 266 264 261 259 256 255 255 254 252 245 240 236 234 232 231 230 229 229 228 228 228 228 228 228 227 227 227 226
303 301 299 296 292 290 287 285 283 280 279 277 273 270 269 266 263 262 261 258 255 254 252 251 249 245 240 237 235 233 231 230 229 230 229 229 229 230 230 230 230 230 229
309 307 305 301 297 294 290 286 284 282 280 277 274 272 269 267 264 263 262 260 256 254 251 250 248 247 244 241 238 235 233 231 230 230 230 230 230 230 231 231 232 232 231
314 312 310 308 305 301 296 291 287 284 282 280 276 274 271 268 266 264 263 261 257 254 252 250 249 247 245 243 241 238 236 233 232 231 230 231 231 231 232 232 232 233 233
318 316 313 312 309 307 303 298 293 289 285 282 280 277 274 272 269 266 263 261 259 257 254 251 249 247 246 245 243 241 238 236 233 232 231 232 232 232 232 233 232 233 234
319 316 314 312 311 309 306 303 299 294 289 285 282 279 278 276 272 268 265 262 260 258 256 254 251 249 248 247 245 242 240 238 235 233 232 232 233 233 233 233 233 233 234
320 316 314 312 310 308 306 303 301 297 293 289 285 282 280 277 275 272 268 264 262 260 257 254 252 250 249 247 246 243 240 239 237 235 234 234 234 234 233 234 234 233 234
320 317 314 312 310 308 307 305 302 299 296 293 289 285 282 279 277 274 272 268 264 260 258 256 254 251 249 248 247 244 242 241 239 238 237 236 235 234 234 234 234 233 234
321 316 314 312 311 309 307 305 303 300 297 294 291 288 285 282 279 276 273 270 267 263 260 257 255 253 250 248 247 245 244 243 241 240 239 237 236 235 234 233 233 233 234
322 320 316 314 312 310 308 305 303 300 296 294 292 289 286 283 280 277 274 271 269 266 262 259 256 254 252 250 248 246 245 244 242 241 240 239 238 236 234 232 232 233 233
324 322 320 317 315 312 310 307 304 300 297 294 292 289 287 284 281 277 274 272 269 267 264 261 258 255 253 250 248 247 246 243 242 241 241 240 238 237 235 233 232 232 233
323 321 320 317 315 313 310 307 304 301 298 294 291 288 286 284 281 277 274 272 269 266 265 263 260 257 254 251 249 248 246 244 242 241 242 241 239 237 234 233 232 232 233
324 322 321 319 317 314 311 308 305 302 299 295 292 289 286 283 280 277 275 272 269 266 264 263 261 259 256 253 250 248 246 245 244 242 242 240 239 238 234 233 232 231 232
324 323 322 321 319 317 314 311 307 304 300 296 293 289 286 282 279 277 275 272 269 267 264 262 261 259 257 254 250 248 246 245 243 242 241 240 239 238 234 232 231 231 231
325 324 324 322 321 319 317 314 310 307 303 298 294 290 286 283 280 277 275 273 270 267 265 263 260 259 257 254 252 248 246 244 243 242 241 239 237 237 235 231 231 230 230
325 325 325 324 323 322 320 317 313 309 305 301 297 292 288 285 281 278 275 273 271 268 265 263 261 259 257 254 252 249 246 243 243 242 241 239 237 236 234 232 230 230 230
324 325 326 325 325 324 322 319 315 312 308 304 299 295 291 286 283 279 276 273 271 269 266 264 261 259 256 254 251 248 245 243 241 240 239 238 237 235 234 232 229 228 229
324 325 326 326 326 325 324 320 317 314 310 306 302 298 294 289 285 282 279 275 272 269 267 265 261 258 255 253 250 247 244 241 239 238 237 237 236 235 234 232 230 228 227
325 326 327 327 327 327 325 322 319 315 312 308 304 300 297 293 288 284 280 276 272 270 268 266 262 258 254 251 248 246 242 239 237 236 235 234 234 234 234 232 229 228 227
326 327 328 328 327 327 325 322 319 316 313 309 305 301 298 296 291 286 282 279 275 272 270 266 262 257 253 250 247 244 240 237 235 235 233 231 232 231 232 232 230 228 227
326 327 328 328 327 327 325 322 319 316 313 310 306 303 301 298 294 289 284 282 279 275 271 266 261 257 253 250 247 243 240 236 234 233 232 230 229 230 230 230 228 226 225
325 327 327 327 326 326 324 321 319 317 313 310 307 303 301 299 296 291 287 284 281 277 272 269 263 258 254 250 246 243 239 236 233 231 230 228 227 227 228 228 228 227 226
323 326 326 327 326 325 323 321 318 316 314 311 308 305 302 300 297 293 288 285 282 278 274 271 266 261 256 251 247 243 239 235 232 231 230 227 225 224 225 226 226 225 224
Height
5867 5867 5866 5865 5865 5865 5865 5864 5864 5865 5865 5866 5867 5868 5868 5869 5869 5870 5870 5872 5874 5876 5878 5880 5882 5885 5887 5890 5893 5895 5898 5901 5903 5906 5908 5910 5912 5914 5916 5918 5920 5921 5923
5864 5863 5862 5861 5860 5860 5859 5859 5859 5859 5859 5860 5861 5862 5863 5864 5865 5865 5866 5868 5869 5871 5873 5875 5877 5880 5883 5885 5888 5891 5894 5897 5900 5903 5906 5908 5910 5912 5915 5917 5918 5920 5922
5860 5859 5858 5857 5856 5855 5855 5854 5854 5855 5854 5855 5856 5857 5858 5859 5860 5860 5862 5864 5865 5866 5867 5869 5872 5875 5877 5880 5883 5887 5890 5893 5896 5899 5902 5905 5908 5910 5912 5915 5917 5919 5920
5856 5855 5854 5853 5852 5851 5850 5850 5849 5850 5849 5849 5850 5851 5852 5853 5854 5855 5856 5858 5859 5861 5862 5864 5866 5869 5872 5875 5878 5881 5885 5889 5892 5895 5898 5901 5904 5907 5910 5912 5914 5917 5919
5852 5851 5850 5848 5847 5846 5846 5845 5845 5844 5844 5844 5844 5845 5846 5847 5848 5849 5851 5851 5853 5855 5857 5859 5861 5863 5866 5869 5872 5875 5879 5883 5887 5890 5893 5897 5900 5903 5906 5909 5911 5914 5916
5848 5847 5845 5844 5843 5842 5841 5840 5839 5839 5839 5839 5839 5839 5840 5841 5841 5843 5844 5845 5847 5849 5851 5853 5855 5857 5860 5863 5865 5869 5872 5876 5880 5884 5888 5892 5895 5898 5902 5905 5908 5910 5913
5845 5843 5842 5840 5839 5838 5837 5836 5835 5834 5834 5834 5834 5834 5834 5834 5835 5836 5837 5839 5840 5842 5844 5846 5848 5851 5853 5856 5859 5862 5865 5869 5873 5877 5881 5885 5889 5893 5897 5900 5903 5906 5909
5842 5840 5838 5837 5835 5834 5833 5832 5831 5830 5829 5829 5829 5828 5828 5829 5829 5830 5831 5831 5833 5834 5836 5838 5841 5843 5846 5849 5852 5854 5857 5861 5865 5869 5874 5878 5883 5887 5891 5895 5898 5902 5905
5839 5837 5835 5833 5832 5830 5829 5827 5826 5825 5825 5824 5823 5823 5823 5822 5823 5823 5824 5824 5825 5827 5828 5830 5833 5835 5838 5841 5844 5846 5850 5853 5857 5861 5866 5871 5875 5880 5884 5888 5892 5896 5900
5836 5834 5832 5830 5828 5826 5825 5823 5822 5820 5819 5818 5818 5817 5816 5816 5816 5816 5817 5817 5818 5819 5821 5823 5825 5827 5830 5833 5835 5839 5842 5845 5849 5853 5857 5862 5867 5872 5877 5881 5886 5890 5894
5833 5831 5828 5826 5824 5822 5820 5818 5817 5815 5814 5812 5811 5811 5810 5809 5808 5809 5809 5809 5810 5811 5813 5815 5817 5819 5821 5824 5827 5830 5833 5837 5841 5844 5848 5853 5858 5863 5868 5873 5878 5883 5887
5830 5827 5825 5822 5820 5818 5815 5813 5811 5809 5807 5806 5804 5803 5802 5802 5801 5800 5801 5801 5801 5803 5804 5806 5808 5810 5812 5815 5818 5821 5825 5828 5832 5835 5839 5844 5849 5854 5859 5865 5870 5875 5880
5826 5823 5820 5818 5815 5813 5810 5808 5805 5803 5801 5799 5797 5795 5794 5793 5792 5792 5792 5792 5792 5793 5794 5796 5798 5800 5803 5806 5809 5812 5815 5819 5822 5826 5830 5834 5839 5844 5850 5856 5861 5867 5872
5821 5818 5815 5813 5810 5807 5804 5801 5798 5796 5793 5791 5788 5786 5785 5783 5782 5782 5782 5782 5782 5783 5783 5785 5787 5789 5792 5795 5799 5802 5805 5809 5812 5816 5820 5825 5830 5835 5840 5846 5852 5858 5863
5817 5814 5811 5808 5804 5801 5797 5794 5791 5787 5784 5782 5779 5777 5775 5773 5772 5771 5770 5770 5771 5772 5773 5773 5775 5777 5780 5784 5788 5791 5795 5799 5802 5806 5811 5815 5820 5825 5830 5836 5842 5848 5854
5813 5809 5805 5801 5798 5794 5790 5786 5782 5778 5775 5771 5768 5766 5764 5762 5760 5759 5759 5758 5759 5760 5761 5762 5763 5765 5768 5772 5776 5780 5784 5788 5792 5796 5800 5804 5809 5814 5820 5826 5832 5838 5844
5808 5804 5799 5795 5790 5786 5781 5776 5772 5768 5764 5760 5757 5754 5752 5750 5748 5747 5746 5746 5746 5746 5748 5750 5750 5753 5756 5759 5764 5768 5772 5776 5780 5785 5789 5794 5799 5804 5809 5815 5822 5828 5835
5802 5798 5793 5788 5783 5777 5772 5767 5762 5757 5752 5748 5745 5742 5739 5737 5736 5735 5734 5734 5734 5734 5735 5737 5738 5740 5743 5746 5750 5755 5760 5764 5769 5774 5778 5783 5789 5794 5799 5805 5811 5818 5825
5796 5791 5786 5780 5774 5768 5763 5757 5751 5746 5741 5737 5733 5730 5727 5725 5724 5722 5722 5721 5721 5721 5722 5724 5726 5728 5730 5734 5737 5742 5747 5752 5757 5762 5767 5772 5778 5783 5788 5794 5801 5808 5815
5789 5784 5778 5772 5766 5759 5753 5747 5741 5736 5731 5726 5722 5719 5716 5714 5712 5711 5710 5709 5709 5709 5710 5711 5714 5715 5718 5721 5725 5729 5734 5740 5745 5751 5756 5761 5767 5772 5778 5784 5791 5797 5804
5782 5777 5770 5764 5757 5750 5744 5737 5731 5726 5721 5717 5712 5709 5706 5703 5701 5700 5699 5698 5698 5698 5698 5699 5701 5703 5706 5709 5713 5717 5722 5727 5733 5739 5745 5751 5756 5762 5767 5773 5779 5786 5794
5775 5769 5762 5755 5748 5741 5735 5728 5722 5717 5712 5707 5703 5699 5696 5694 5691 5689 5688 5687 5687 5687 5687 5688 5689 5692 5694 5697 5700 5704 5710 5716 5722 5728 5733 5740 5745 5751 5757 5763 5769 5776 5783
5767 5761 5754 5747 5739 5733 5726 5719 5713 5708 5703 5699 5694 5690 5687 5684 5681 5679 5677 5676 5676 5675 5676 5676 5678 5680 5682 5685 5688 5693 5697 5703 5710 5715 5722 5729 5734 5740 5746 5752 5759 5765 5772
5759 5752 5745 5738 5731 5724 5717 5711 5705 5700 5695 5690 5686 5682 5678 5675 5672 5670 5668 5667 5665 5665 5664 5665 5666 5668 5670 5672 5676 5681 5686 5692 5698 5704 5710 5718 5724 5730 5736 5741 5748 5755 5762
5751 5744 5736 5729 5722 5715 5708 5702 5696 5691 5686 5682 5677 5673 5669 5666 5663 5660 5658 5657 5655 5654 5653 5653 5655 5656 5658 5661 5665 5669 5675 5681 5687 5693 5699 5706 5713 5719 5725 5731 5738 5744 5752
5742 5735 5728 5720 5713 5706 5699 5693 5687 5683 5678 5673 5669 5664 5661 5657 5654 5651 5648 5647 5645 5644 5643 5643 5643 5644 5646 5649 5652 5657 5663 5669 5675 5682 5688 5695 5701 5708 5715 5721 5728 5735 5742